OBJECT L

基本信息
目录编号:
68426
目录名称:
OBJECT L
国际标识:
2026-067L
轨道中心:
EARTH
物体状态:
在轨
发射日期:
2026-03-30 UTC
国别:
(TBD)
轨道信息
数据来源: 国际轨道数据
星历时间: 2026-09-12T03:53:53+0800
半长轴: 6879.799km
偏心率: 0.0003572
轨道倾角: 97.463°
近地点辐角: 68.901°
升交点赤经: 212.490°
平近点角: 291.261°
近地点: 499.204km
远地点: 504.12km
周期: 94.651分钟
每日圈数: 15.213852
详细信息
发射场:
AFWTR
轨道高度:
LEO
数据来源:
AOE Integration Group
参考系:
TEME
时间系统:
UTC
历元类型:
SGP4
2D轨道图
3D轨道图
轨道高度分析图
轨道倾角分析图
轨道综合分析图
查看轨道综合分析图